TimePST,TemperatureF,Dew PointF,Humidity,Sea Level PressureIn,VisibilityMPH,Wind Direction,Wind SpeedMPH,Gust SpeedMPH,PrecipitationIn,Events,Conditions,WindDirDegrees,DateUTC
12:53 AM,64.9,26.1,23,30.15,10.0,Calm,Calm,-,N/A,,Mostly Cloudy,0,2013-02-16 08:53:00
1:53 AM,61.0,27.0,27,30.14,10.0,Calm,Calm,-,N/A,,Mostly Cloudy,0,2013-02-16 09:53:00
2:53 AM,57.0,27.0,32,30.13,10.0,Calm,Calm,-,N/A,,Mostly Cloudy,0,2013-02-16 10:53:00
3:53 AM,55.0,26.1,33,30.12,10.0,East,4.6,-,N/A,,Mostly Cloudy,90,2013-02-16 11:53:00
4:53 AM,57.0,25.0,29,30.12,10.0,NE,4.6,-,N/A,,Mostly Cloudy,50,2013-02-16 12:53:00
5:53 AM,55.0,25.0,31,30.13,10.0,Calm,Calm,-,N/A,,Mostly Cloudy,0,2013-02-16 13:53:00
6:53 AM,57.9,21.0,24,30.14,10.0,ENE,5.8,-,N/A,,Mostly Cloudy,60,2013-02-16 14:53:00
7:53 AM,63.0,23.0,22,30.15,10.0,NE,6.9,-,N/A,,Scattered Clouds,50,2013-02-16 15:53:00
8:53 AM,69.1,19.9,15,30.15,10.0,Variable,4.6,-,N/A,,Scattered Clouds,0,2013-02-16 16:53:00
9:53 AM,73.9,21.0,14,30.15,10.0,NE,6.9,-,N/A,,Scattered Clouds,50,2013-02-16 17:53:00
10:53 AM,75.0,18.0,12,30.14,10.0,Variable,5.8,-,N/A,,Mostly Cloudy,0,2013-02-16 18:53:00
11:53 AM,79.0,17.1,10,30.10,10.0,Variable,3.5,-,N/A,,Mostly Cloudy,0,2013-02-16 19:53:00
12:53 PM,77.0,24.1,14,30.06,10.0,West,16.1,19.6,N/A,,Scattered Clouds,270,2013-02-16 20:53:00
1:53 PM,72.0,39.0,30,30.04,10.0,West,11.5,-,N/A,,Scattered Clouds,260,2013-02-16 21:53:00
2:53 PM,73.0,30.9,21,30.03,10.0,West,12.7,-,N/A,,Scattered Clouds,270,2013-02-16 22:53:00
3:53 PM,70.0,32.0,25,30.02,10.0,West,11.5,-,N/A,,Scattered Clouds,270,2013-02-16 23:53:00
4:53 PM,70.0,27.0,20,30.00,10.0,West,10.4,-,N/A,,Scattered Clouds,270,2013-02-17 00:53:00
5:53 PM,66.0,30.9,27,30.00,10.0,West,9.2,-,N/A,,Partly Cloudy,260,2013-02-17 01:53:00
6:53 PM,64.0,35.1,34,30.00,10.0,West,11.5,-,N/A,,Partly Cloudy,270,2013-02-17 02:53:00
7:53 PM,62.1,37.9,41,29.99,10.0,West,6.9,-,N/A,,Partly Cloudy,260,2013-02-17 03:53:00
8:53 PM,60.1,41.0,49,29.98,10.0,WSW,5.8,-,N/A,,Clear,250,2013-02-17 04:53:00
9:53 PM,60.1,44.1,55,29.98,10.0,WSW,8.1,-,N/A,,Clear,250,2013-02-17 05:53:00
10:53 PM,57.9,46.0,65,29.98,10.0,WSW,3.5,-,N/A,,Clear,250,2013-02-17 06:53:00
11:53 PM,57.0,45.0,64,29.97,10.0,Calm,Calm,-,N/A,,Clear,0,2013-02-17 07:53:00